Time,TemperatureF,DewpointF,PressureIn,WindDirection,WindDirectionDegrees,WindSpeedMPH,WindSpeedGustMPH,Humidity,HourlyPrecipIn,Conditions,Clouds,dailyrainin,SoftwareType,DateUTC
2013-02-20 00:02:00,27.0,23.0,29.70,SW,218,4.0,-999.0,85,-99.99,,,-99.99,,2013-02-20 05:02:00,
2013-02-20 00:12:00,27.0,23.0,29.70,SW,218,4.0,-999.0,85,-99.99,,,-99.99,,2013-02-20 05:12:00,
2013-02-20 00:22:00,27.0,23.0,29.70,SSW,193,4.0,-999.0,84,-99.99,,,-99.99,,2013-02-20 05:22:00,
2013-02-20 00:32:00,27.0,23.0,29.70,SW,229,3.0,-999.0,84,-99.99,,,-99.99,,2013-02-20 05:32:00,
2013-02-20 00:43:00,27.0,23.0,29.70,SW,229,3.0,-999.0,84,-99.99,,,-99.99,,2013-02-20 05:43:00,
2013-02-20 00:52:00,27.0,23.0,29.70,WSW,257,2.0,-999.0,85,-99.99,,,-99.99,,2013-02-20 05:52:00,
2013-02-20 01:02:00,26.0,22.0,29.70,SW,226,2.0,-999.0,85,-99.99,,,-99.99,,2013-02-20 06:02:00,
2013-02-20 01:11:00,26.0,22.0,29.70,SW,226,2.0,-999.0,85,-99.99,,,-99.99,,2013-02-20 06:11:00,
2013-02-20 01:22:00,26.0,22.0,29.69,SW,229,3.0,-999.0,86,-99.99,,,-99.99,,2013-02-20 06:22:00,
2013-02-20 01:32:00,26.0,22.0,29.70,West,262,2.0,-999.0,86,-99.99,,,-99.99,,2013-02-20 06:32:00,
2013-02-20 01:42:00,26.0,22.0,29.70,West,262,2.0,-999.0,86,-99.99,,,-99.99,,2013-02-20 06:42:00,
2013-02-20 01:52:00,25.0,21.0,29.72,SW,218,7.0,-999.0,86,-99.99,,,-99.99,,2013-02-20 06:52:00,
2013-02-20 02:02:00,23.0,20.0,29.72,North,360,7.0,-999.0,87,-99.99,,,-99.99,,2013-02-20 07:02:00,
2013-02-20 02:11:00,23.0,20.0,29.72,North,360,7.0,-999.0,87,-99.99,,,-99.99,,2013-02-20 07:11:00,
2013-02-20 02:21:00,23.0,18.0,29.73,NW,304,8.0,-999.0,82,-99.99,,,-99.99,,2013-02-20 07:21:00,
2013-02-20 02:32:00,22.0,16.0,29.74,SW,227,5.0,-999.0,79,-99.99,,,-99.99,,2013-02-20 07:32:00,
2013-02-20 02:42:00,22.0,16.0,29.74,SW,227,5.0,-999.0,79,-99.99,,,-99.99,,2013-02-20 07:42:00,
2013-02-20 02:52:00,22.0,16.0,29.74,WNW,296,6.0,-999.0,79,-99.99,,,-99.99,,2013-02-20 07:52:00,
2013-02-20 03:05:00,21.0,15.0,29.75,ENE,73,6.0,-999.0,77,-99.99,,,-99.99,,2013-02-20 08:05:00,
2013-02-20 03:11:00,21.0,15.0,29.75,ENE,73,6.0,-999.0,77,-99.99,,,-99.99,,2013-02-20 08:11:00,
2013-02-20 03:22:00,21.0,15.0,29.75,NNW,327,6.0,-999.0,76,-99.99,,,-99.99,,2013-02-20 08:22:00,
2013-02-20 03:31:00,20.0,13.0,29.75,WSW,246,5.0,-999.0,75,-99.99,,,-99.99,,2013-02-20 08:31:00,
2013-02-20 03:42:00,20.0,13.0,29.75,WSW,246,5.0,-999.0,75,-99.99,,,-99.99,,2013-02-20 08:42:00,
2013-02-20 03:52:00,20.0,13.0,29.74,West,259,6.0,-999.0,73,-99.99,,,-99.99,,2013-02-20 08:52:00,
2013-02-20 04:01:00,20.0,13.0,29.75,NW,321,3.0,-999.0,74,-99.99,,,-99.99,,2013-02-20 09:01:00,
2013-02-20 04:11:00,20.0,13.0,29.75,NW,321,3.0,-999.0,74,-99.99,,,-99.99,,2013-02-20 09:11:00,
2013-02-20 04:21:00,20.0,13.0,29.75,WSW,252,3.0,-999.0,73,-99.99,,,-99.99,,2013-02-20 09:21:00,
2013-02-20 04:32:00,20.0,13.0,29.75,WSW,242,4.0,-999.0,73,-99.99,,,-99.99,,2013-02-20 09:32:00,
2013-02-20 04:42:00,20.0,13.0,29.75,WSW,242,4.0,-999.0,73,-99.99,,,-99.99,,2013-02-20 09:42:00,
2013-02-20 04:52:00,20.0,12.0,29.75,West,279,4.0,-999.0,72,-99.99,,,-99.99,,2013-02-20 09:52:00,
2013-02-20 05:01:00,20.0,12.0,29.75,SW,227,6.0,-999.0,71,-99.99,,,-99.99,,2013-02-20 10:01:00,
2013-02-20 05:12:00,20.0,12.0,29.75,SW,227,6.0,-999.0,71,-99.99,,,-99.99,,2013-02-20 10:12:00,
2013-02-20 05:22:00,19.0,11.0,29.75,SW,229,5.0,-999.0,71,-99.99,,,-99.99,,2013-02-20 10:22:00,
2013-02-20 05:32:00,19.0,11.0,29.75,West,267,4.0,-999.0,71,-99.99,,,-99.99,,2013-02-20 10:32:00,
2013-02-20 05:42:00,19.0,11.0,29.75,West,267,4.0,-999.0,71,-99.99,,,-99.99,,2013-02-20 10:42:00,
2013-02-20 05:52:00,18.0,11.0,29.75,WSW,255,5.0,-999.0,72,-99.99,,,-99.99,,2013-02-20 10:52:00,
2013-02-20 06:02:00,18.0,11.0,29.76,West,271,3.0,-999.0,73,-99.99,,,-99.99,,2013-02-20 11:02:00,
2013-02-20 06:11:00,18.0,11.0,29.76,WSW,249,3.0,-999.0,74,-99.99,,,-99.99,,2013-02-20 11:11:00,
2013-02-20 06:21:00,18.0,11.0,29.76,WSW,249,3.0,-999.0,74,-99.99,,,-99.99,,2013-02-20 11:21:00,
2013-02-20 06:32:00,18.0,11.0,29.76,WSW,249,3.0,-999.0,74,-99.99,,,-99.99,,2013-02-20 11:32:00,
2013-02-20 06:42:00,18.0,11.0,29.76,WSW,249,3.0,-999.0,74,-99.99,,,-99.99,,2013-02-20 11:42:00,
2013-02-20 06:52:00,18.0,12.0,29.77,WSW,247,4.0,-999.0,76,-99.99,,,-99.99,,2013-02-20 11:52:00,
2013-02-20 07:02:00,18.0,12.0,29.77,WSW,248,5.0,-999.0,77,-99.99,,,-99.99,,2013-02-20 12:02:00,
2013-02-20 07:12:00,18.0,12.0,29.77,WSW,248,5.0,-999.0,77,-99.99,,,-99.99,,2013-02-20 12:12:00,
2013-02-20 07:22:00,17.0,11.0,29.78,WSW,253,4.0,-999.0,78,-99.99,,,-99.99,,2013-02-20 12:22:00,
2013-02-20 07:32:00,17.0,11.0,29.78,SW,218,6.0,-999.0,78,-99.99,,,-99.99,,2013-02-20 12:32:00,
2013-02-20 07:42:00,17.0,11.0,29.78,SW,218,6.0,-999.0,78,-99.99,,,-99.99,,2013-02-20 12:42:00,
2013-02-20 07:53:00,17.0,11.0,29.79,WSW,240,8.0,-999.0,78,-99.99,,,-99.99,,2013-02-20 12:53:00,
2013-02-20 08:01:00,17.0,11.0,29.79,WSW,250,7.0,-999.0,78,-99.99,,,-99.99,,2013-02-20 13:01:00,
2013-02-20 08:12:00,17.0,11.0,29.79,WSW,250,7.0,-999.0,78,-99.99,,,-99.99,,2013-02-20 13:12:00,
2013-02-20 08:22:00,17.0,11.0,29.79,SSW,209,7.0,-999.0,78,-99.99,,,-99.99,,2013-02-20 13:22:00,
2013-02-20 08:32:00,17.0,11.0,29.79,WSW,240,7.0,-999.0,77,-99.99,,,-99.99,,2013-02-20 13:32:00,
2013-02-20 08:42:00,17.0,11.0,29.79,WSW,240,7.0,-999.0,77,-99.99,,,-99.99,,2013-02-20 13:42:00,
2013-02-20 08:52:00,17.0,11.0,29.79,WNW,288,7.0,-999.0,76,-99.99,,,-99.99,,2013-02-20 13:52:00,
2013-02-20 09:01:00,18.0,11.0,29.80,WSW,251,8.0,-999.0,75,-99.99,,,-99.99,,2013-02-20 14:01:00,
2013-02-20 09:11:00,18.0,11.0,29.80,WSW,251,8.0,-999.0,75,-99.99,,,-99.99,,2013-02-20 14:11:00,
2013-02-20 09:22:00,18.0,11.0,29.80,WSW,251,8.0,-999.0,75,-99.99,,,-99.99,,2013-02-20 14:22:00,
2013-02-20 09:32:00,19.0,11.0,29.79,SSW,196,8.0,-999.0,72,-99.99,,,-99.99,,2013-02-20 14:32:00,
2013-02-20 09:42:00,19.0,11.0,29.79,SSW,196,8.0,-999.0,72,-99.99,,,-99.99,,2013-02-20 14:42:00,
2013-02-20 09:52:00,18.0,11.0,29.80,WSW,247,7.0,-999.0,75,-99.99,,,-99.99,,2013-02-20 14:52:00,
2013-02-20 10:02:00,19.0,11.0,29.80,NW,305,7.0,-999.0,72,-99.99,,,-99.99,,2013-02-20 15:02:00,
2013-02-20 10:11:00,19.0,11.0,29.80,NW,305,7.0,-999.0,72,-99.99,,,-99.99,,2013-02-20 15:11:00,
2013-02-20 10:22:00,19.0,11.0,29.80,West,277,8.0,-999.0,70,-99.99,,,-99.99,,2013-02-20 15:22:00,
2013-02-20 10:32:00,19.0,11.0,29.80,SW,231,10.0,-999.0,69,-99.99,,,-99.99,,2013-02-20 15:32:00,
2013-02-20 10:42:00,19.0,11.0,29.80,SW,231,10.0,-999.0,69,-99.99,,,-99.99,,2013-02-20 15:42:00,
2013-02-20 10:52:00,19.0,11.0,29.80,SW,231,10.0,-999.0,69,-99.99,,,-99.99,,2013-02-20 15:52:00,
2013-02-20 11:01:00,19.0,11.0,29.80,SW,231,10.0,-999.0,69,-99.99,,,-99.99,,2013-02-20 16:01:00,
2013-02-20 11:12:00,19.0,11.0,29.80,SW,231,10.0,-999.0,69,-99.99,,,-99.99,,2013-02-20 16:12:00,
2013-02-20 11:22:00,19.0,11.0,29.81,WNW,284,8.0,-999.0,72,-99.99,,,-99.99,,2013-02-20 16:22:00,
2013-02-20 11:32:00,19.0,13.0,29.81,WSW,250,6.0,-999.0,78,-99.99,,,-99.99,,2013-02-20 16:32:00,
2013-02-20 11:42:00,19.0,13.0,29.81,WSW,250,6.0,-999.0,78,-99.99,,,-99.99,,2013-02-20 16:42:00,
2013-02-20 11:52:00,19.0,14.0,29.81,SW,236,3.0,-999.0,81,-99.99,,,-99.99,,2013-02-20 16:52:00,
2013-02-20 12:01:00,19.0,13.0,29.82,WSW,254,7.0,-999.0,78,-99.99,,,-99.99,,2013-02-20 17:01:00,
2013-02-20 12:11:00,21.0,13.0,29.81,SSW,202,8.0,-999.0,71,-99.99,,,-99.99,,2013-02-20 17:11:00,
2013-02-20 12:21:00,21.0,13.0,29.81,SSW,202,8.0,-999.0,71,-99.99,,,-99.99,,2013-02-20 17:21:00,
2013-02-20 12:32:00,21.0,12.0,29.81,South,188,9.0,-999.0,69,-99.99,,,-99.99,,2013-02-20 17:32:00,
2013-02-20 12:42:00,21.0,12.0,29.81,South,188,9.0,-999.0,69,-99.99,,,-99.99,,2013-02-20 17:42:00,
2013-02-20 12:52:00,21.0,10.0,29.81,WSW,247,10.0,-999.0,63,-99.99,,,-99.99,,2013-02-20 17:52:00,
2013-02-20 13:02:00,22.0,10.0,29.81,WSW,242,5.0,-999.0,60,-99.99,,,-99.99,,2013-02-20 18:02:00,
2013-02-20 13:11:00,22.0,10.0,29.81,WSW,242,5.0,-999.0,60,-99.99,,,-99.99,,2013-02-20 18:11:00,
2013-02-20 13:22:00,21.0,10.0,29.81,WSW,240,7.0,-999.0,62,-99.99,,,-99.99,,2013-02-20 18:22:00,
2013-02-20 13:32:00,21.0,10.0,29.81,WSW,240,7.0,-999.0,62,-99.99,,,-99.99,,2013-02-20 18:32:00,
2013-02-20 13:42:00,21.0,10.0,29.81,WSW,240,7.0,-999.0,62,-99.99,,,-99.99,,2013-02-20 18:42:00,
2013-02-20 13:52:00,20.0,9.0,29.81,WNW,286,8.0,-999.0,61,-99.99,,,-99.99,,2013-02-20 18:52:00,
2013-02-20 14:01:00,20.0,8.0,29.82,WSW,250,9.0,-999.0,58,-99.99,,,-99.99,,2013-02-20 19:01:00,
2013-02-20 14:11:00,20.0,8.0,29.82,WSW,250,9.0,-999.0,58,-99.99,,,-99.99,,2013-02-20 19:11:00,
2013-02-20 14:21:00,20.0,7.0,29.82,West,262,10.0,-999.0,56,-99.99,,,-99.99,,2013-02-20 19:21:00,
2013-02-20 14:31:00,20.0,8.0,29.82,SW,228,5.0,-999.0,59,-99.99,,,-99.99,,2013-02-20 19:31:00,
2013-02-20 14:41:00,20.0,8.0,29.82,SW,228,5.0,-999.0,59,-99.99,,,-99.99,,2013-02-20 19:41:00,
2013-02-20 14:52:00,20.0,7.0,29.83,South,186,12.0,-999.0,56,-99.99,,,-99.99,,2013-02-20 19:52:00,
2013-02-20 15:01:00,20.0,8.0,29.84,WSW,252,9.0,-999.0,58,-99.99,,,-99.99,,2013-02-20 20:01:00,
2013-02-20 15:11:00,20.0,7.0,29.84,West,270,8.0,-999.0,56,-99.99,,,-99.99,,2013-02-20 20:11:00,
2013-02-20 15:21:00,20.0,7.0,29.84,West,270,8.0,-999.0,56,-99.99,,,-99.99,,2013-02-20 20:21:00,
2013-02-20 15:31:00,19.0,7.0,29.85,WSW,240,9.0,-999.0,59,-99.99,,,-99.99,,2013-02-20 20:31:00,
2013-02-20 15:41:00,19.0,7.0,29.85,WSW,240,9.0,-999.0,59,-99.99,,,-99.99,,2013-02-20 20:41:00,
2013-02-20 15:52:00,19.0,7.0,29.85,WNW,296,8.0,-999.0,60,-99.99,,,-99.99,,2013-02-20 20:52:00,
2013-02-20 16:01:00,19.0,7.0,29.86,West,277,7.0,-999.0,60,-99.99,,,-99.99,,2013-02-20 21:01:00,
2013-02-20 16:11:00,19.0,7.0,29.86,West,277,7.0,-999.0,60,-99.99,,,-99.99,,2013-02-20 21:11:00,
2013-02-20 16:21:00,19.0,8.0,29.86,West,281,9.0,-999.0,62,-99.99,,,-99.99,,2013-02-20 21:21:00,
2013-02-20 16:31:00,18.0,8.0,29.88,NNW,327,9.0,-999.0,64,-99.99,,,-99.99,,2013-02-20 21:31:00,
2013-02-20 16:42:00,18.0,8.0,29.88,NNW,327,9.0,-999.0,64,-99.99,,,-99.99,,2013-02-20 21:42:00,
2013-02-20 16:52:00,18.0,8.0,29.88,WNW,298,7.0,-999.0,64,-99.99,,,-99.99,,2013-02-20 21:52:00,
2013-02-20 17:02:00,17.0,8.0,29.88,WNW,290,9.0,-999.0,66,-99.99,,,-99.99,,2013-02-20 22:02:00,
2013-02-20 17:11:00,17.0,8.0,29.88,WNW,290,9.0,-999.0,66,-99.99,,,-99.99,,2013-02-20 22:11:00,
2013-02-20 17:21:00,17.0,7.0,29.88,WSW,249,8.0,-999.0,65,-99.99,,,-99.99,,2013-02-20 22:21:00,
2013-02-20 17:31:00,17.0,8.0,29.90,WSW,258,7.0,-999.0,66,-99.99,,,-99.99,,2013-02-20 22:31:00,
2013-02-20 17:43:00,17.0,8.0,29.90,WSW,258,7.0,-999.0,66,-99.99,,,-99.99,,2013-02-20 22:43:00,
2013-02-20 17:52:00,17.0,8.0,29.90,WSW,258,7.0,-999.0,66,-99.99,,,-99.99,,2013-02-20 22:52:00,
2013-02-20 18:01:00,16.0,8.0,29.90,WSW,248,9.0,-999.0,71,-99.99,,,-99.99,,2013-02-20 23:01:00,
2013-02-20 18:12:00,16.0,8.0,29.90,WSW,248,9.0,-999.0,71,-99.99,,,-99.99,,2013-02-20 23:12:00,
2013-02-20 18:22:00,16.0,8.0,29.91,WNW,288,8.0,-999.0,71,-99.99,,,-99.99,,2013-02-20 23:22:00,
2013-02-20 18:32:00,16.0,8.0,29.92,SSW,213,7.0,-999.0,71,-99.99,,,-99.99,,2013-02-20 23:32:00,
2013-02-20 18:42:00,16.0,8.0,29.92,SSW,213,7.0,-999.0,71,-99.99,,,-99.99,,2013-02-20 23:42:00,
2013-02-20 18:53:00,16.0,8.0,29.93,WSW,254,7.0,-999.0,71,-99.99,,,-99.99,,2013-02-20 23:53:00,
2013-02-20 19:03:00,16.0,8.0,29.95,West,259,8.0,-999.0,71,-99.99,,,-99.99,,2013-02-21 00:03:00,
2013-02-20 19:11:00,16.0,8.0,29.95,West,259,8.0,-999.0,71,-99.99,,,-99.99,,2013-02-21 00:11:00,
2013-02-20 19:22:00,16.0,8.0,29.94,WSW,246,6.0,-999.0,71,-99.99,,,-99.99,,2013-02-21 00:22:00,
2013-02-20 19:32:00,16.0,8.0,29.94,WSW,245,10.0,-999.0,71,-99.99,,,-99.99,,2013-02-21 00:32:00,
2013-02-20 19:42:00,16.0,8.0,29.94,WSW,245,10.0,-999.0,71,-99.99,,,-99.99,,2013-02-21 00:42:00,
2013-02-20 19:52:00,16.0,9.0,29.94,SSW,207,9.0,-999.0,72,-99.99,,,-99.99,,2013-02-21 00:52:00,
2013-02-20 20:01:00,16.0,9.0,29.93,SW,234,6.0,-999.0,73,-99.99,,,-99.99,,2013-02-21 01:01:00,
2013-02-20 20:11:00,16.0,9.0,29.93,SW,234,6.0,-999.0,73,-99.99,,,-99.99,,2013-02-21 01:11:00,
2013-02-20 20:21:00,16.0,9.0,29.94,SW,214,7.0,-999.0,74,-99.99,,,-99.99,,2013-02-21 01:21:00,
2013-02-20 20:32:00,16.0,9.0,29.95,NW,317,10.0,-999.0,75,-99.99,,,-99.99,,2013-02-21 01:32:00,
2013-02-20 20:42:00,16.0,9.0,29.95,NW,317,10.0,-999.0,75,-99.99,,,-99.99,,2013-02-21 01:42:00,
2013-02-20 20:52:00,16.0,10.0,29.96,SW,228,8.0,-999.0,76,-99.99,,,-99.99,,2013-02-21 01:52:00,
2013-02-20 21:02:00,16.0,10.0,29.96,West,271,7.0,-999.0,77,-99.99,,,-99.99,,2013-02-21 02:02:00,
2013-02-20 21:11:00,16.0,10.0,29.96,West,271,7.0,-999.0,77,-99.99,,,-99.99,,2013-02-21 02:11:00,
2013-02-20 21:22:00,16.0,10.0,29.96,WSW,252,8.0,-999.0,77,-99.99,,,-99.99,,2013-02-21 02:22:00,
2013-02-20 21:32:00,16.0,10.0,29.97,WNW,293,8.0,-999.0,77,-99.99,,,-99.99,,2013-02-21 02:32:00,
2013-02-20 21:42:00,16.0,10.0,29.97,WNW,293,8.0,-999.0,77,-99.99,,,-99.99,,2013-02-21 02:42:00,
2013-02-20 21:52:00,16.0,10.0,29.97,WNW,293,8.0,-999.0,77,-99.99,,,-99.99,,2013-02-21 02:52:00,
2013-02-20 22:02:00,16.0,10.0,29.98,West,276,11.0,-999.0,77,-99.99,,,-99.99,,2013-02-21 03:02:00,
2013-02-20 22:12:00,16.0,10.0,29.98,West,276,11.0,-999.0,77,-99.99,,,-99.99,,2013-02-21 03:12:00,
2013-02-20 22:21:00,16.0,10.0,29.98,West,276,11.0,-999.0,77,-99.99,,,-99.99,,2013-02-21 03:21:00,
2013-02-20 22:32:00,16.0,10.0,29.96,SW,223,7.0,-999.0,78,-99.99,,,-99.99,,2013-02-21 03:32:00,
2013-02-20 22:42:00,16.0,10.0,29.96,SW,223,7.0,-999.0,78,-99.99,,,-99.99,,2013-02-21 03:42:00,
2013-02-20 22:52:00,16.0,11.0,29.96,West,273,10.0,-999.0,79,-99.99,,,-99.99,,2013-02-21 03:52:00,
2013-02-20 23:01:00,16.0,11.0,29.97,West,274,9.0,-999.0,79,-99.99,,,-99.99,,2013-02-21 04:01:00,
2013-02-20 23:11:00,16.0,11.0,29.97,West,274,9.0,-999.0,79,-99.99,,,-99.99,,2013-02-21 04:11:00,
2013-02-20 23:22:00,16.0,11.0,29.97,West,279,7.0,-999.0,79,-99.99,,,-99.99,,2013-02-21 04:22:00,
2013-02-20 23:32:00,16.0,11.0,29.98,NW,309,7.0,-999.0,79,-99.99,,,-99.99,,2013-02-21 04:32:00,
2013-02-20 23:42:00,16.0,11.0,29.98,NW,309,7.0,-999.0,79,-99.99,,,-99.99,,2013-02-21 04:42:00,
2013-02-20 23:52:00,16.0,11.0,29.98,West,267,7.0,-999.0,79,-99.99,,,-99.99,,2013-02-21 04:52:00,